Regional Weather Roundup
Issued by NWS Sioux Falls, SD

Home | Current Version | Previous Version | Graphics & Text | Print | Product List | Glossary Off
Versions: 1 2 3 4 5 6 7 8 9 10 11 12 13 14 15 16 17 18 19 20 21 22 23 24 25 26 27 28 29 30 31 32 33 34 35 36 37 38 39 40 41 42 43 44 45 46 47 48 49 50

000
ASUS43 KFSD 271202
RWRFSD

WEATHER ROUNDUP FOR SE SOUTH DAKOTA/SW MINNESOTA/NW IOWA
NATIONAL WEATHER SERVICE SIOUX FALLS SD
700 AM CDT WED AUG 27 2014

NOTE: "FAIR" INDICATES FEW OR NO CLOUDS BELOW 12,000 FEET WITH NO
SIGNIFICANT WEATHER AND OR OBSTRUCTIONS TO VISIBILITY.


SDZ038>040-050-052>070-271300-
SOUTHEAST SOUTH DAKOTA

CITY           SKY/WX    TMP DP  RH WIND       PRES   REMARKS
CHAMBERLAIN    CLOUDY    62  60  95 E3        30.12S
6HR MIN TEMP:  60; 6HR MAX TEMP:  62;

HURON          MOCLDY    59  57  93 E5        30.14S
6HR MIN TEMP:  59; 6HR MAX TEMP:  62;

MADISON        PTSUNNY   54  54 100 E3        30.17R
MITCHELL       CLOUDY    59  58  96 SE8       30.13S
6HR MIN TEMP:  57; 6HR MAX TEMP:  60;

SIOUX FALLS    MOCLDY    61  56  83 E5        30.16R
6HR MIN TEMP:  58; 6HR MAX TEMP:  61;

WINNER         CLOUDY    68  65  90 SE8       30.11R
YANKTON        CLOUDY    59  57  94 E6        30.13R
$$

MNZ071-072-080-081-089-090-097-098-271300-
SOUTHWEST MINNESOTA

CITY           SKY/WX    TMP DP  RH WIND       PRES   REMARKS
FAIRMONT       PTCLDY    55  52  88 CALM      30.17S
JACKSON        PTCLDY    55  52  88 E3        30.17S
LUVERNE        PTCLDY    57  54  88 NE6       30.17R
MARSHALL         N/A     54  50  87 CALM      30.17S VSB 3/4
6HR MIN TEMP:  54; 6HR MAX TEMP:  61;

MONTEVIDEO     CLEAR     54  54 100 CALM      30.20R FOG
PIPESTONE      CLEAR     57  54  88 E6        30.16F
REDWOOD FALLS  CLEAR     58  56  93 E3        30.18R
TRACY          CLEAR     55  55  97 CALM      30.18S FOG
WINDOM         PTCLDY    59  57  94 NE5       30.16F
WORTHINGTON    CLEAR     55  54  94 NE5       30.18R
$$

IAZ001>003-012>014-020>022-031-032-NEZ013-014-SDZ071-271300-
NORTHWEST IOWA

CITY           SKY/WX    TMP DP  RH WIND       PRES   REMARKS
CHEROKEE       CLOUDY    60  59  97 CALM      30.15R
DENISON        MOCLDY    64  64 100 MISG      30.13R
ESTHERVILLE    CLEAR     54  53  97 NE5       30.17S
LE MARS        CLOUDY    63  57  82 NE5       30.14R
ORANGE CITY    CLOUDY    61  55  82 E5        30.15R
SHELDON        MOCLDY    57  55  94 E5        30.15R
SIOUX CITY       N/A     65  60  84 S3        30.13R
6HR MIN TEMP:  64; 6HR MAX TEMP:  66;

SPENCER        PTCLDY    58  55  90 E5        30.16S
6HR MIN TEMP:  56; 6HR MAX TEMP:  59;

STORM LAKE     MOCLDY    59  59 100 E5        30.16R
$$

ABBREVIATIONS USED IN REMARKS
   TC - TEMPERATURE IN CELSIUS
  WCI - WIND CHILL INDEX
   HX - HEAT INDEX
  VSB - VISIBILITY




USA.gov is the U.S. government's official web portal to all federal, state and local government web resources and services.